GW3408 Weather Reports


time (UTC)temp
C
wind
direction
speed
KPH
gust
KPH
rain 1hr
cm
rain 24hr
cm
rain mn
cm
humidity
%
barometer
mb
20260507160849 25 217 1.6 11.3 0.00 0.00 0.00 26 1016.0
20260507160344 25 242 4.8 11.3 0.00 0.00 0.00 24 1016.0
20260507155841 25 167 3.2 8.0 0.00 0.00 0.00 26 1016.5
20260507155336 24 244 3.2 11.3 0.00 0.00 0.00 27 1016.2
20260507154834 24 232 4.8 11.3 0.00 0.00 0.00 27 1016.1
20260507154331 25 254 1.6 4.8 0.00 0.00 0.00 26 1016.4
20260507153828 24 236 6.4 12.9 0.00 0.00 0.00 27 1016.4
20260507153324 24 226 6.4 8.0 0.00 0.00 0.00 26 1016.4
20260507152821 25 181 3.2 6.4 0.00 0.00 0.00 26 1016.1
20260507152317 24 213 3.2 8.0 0.00 0.00 0.00 26 1016.0
20260507151813 24 226 3.2 9.7 0.00 0.00 0.00 27 1016.4
20260507151309 23 166 3.2 11.3 0.00 0.00 0.00 28 1016.4
20260507150807 24 156 4.8 11.3 0.00 0.00 0.00 28 1016.4
20260507150303 24 188 3.2 8.0 0.00 0.00 0.00 28 1016.1
20260507145759 24 257 0.0 4.8 0.00 0.00 0.00 29 1016.2
20260507145256 24 202 0.0 3.2 0.00 0.00 0.00 28 1016.2
20260507144753 23 282 1.6 4.8 0.00 0.00 0.00 27 1016.1
20260507144250 23 249 3.2 4.8 0.00 0.00 0.00 27 1016.2
20260507143747 23 164 0.0 4.8 0.00 0.00 0.00 28 1016.2
20260507143244 23 161 0.0 3.2 0.00 0.00 0.00 26 1016.4
20260507142740 23 143 1.6 3.2 0.00 0.00 0.00 28 1016.1
20260507142237 23 114 3.2 4.8 0.00 0.00 0.00 28 1016.1
20260507141733 23 133 3.2 6.4 0.00 0.00 0.00 29 1016.0
20260507141230 22 168 1.6 3.2 0.00 0.00 0.00 29 1016.1
20260507140726 23 141 1.6 3.2 0.00 0.00 0.00 28 1016.1
20260507140224 22 228 0.0 3.2 0.00 0.00 0.00 29 1016.2
20260507135721 23 62 0.0 1.6 0.00 0.00 0.00 28 1016.1
20260507135218 22 164 0.0 1.6 0.00 0.00 0.00 30 1016.0
20260507134714 21 135 0.0 3.2 0.00 0.00 0.00 32 1015.8
20260507134211 20 147 0.0 4.8 0.00 0.00 0.00 32 1015.7
20260507133707 20 263 1.6 4.8 0.00 0.00 0.00 31 1015.8
20260507133204 20 226 4.8 6.4 0.00 0.00 0.00 32 1015.8
20260507132701 19 249 0.0 4.8 0.00 0.00 0.00 33 1016.0
20260507132157 18 272 3.2 4.8 0.00 0.00 0.00 33 1015.7
20260507131654 18 212 0.0 4.8 0.00 0.00 0.00 34 1015.5
20260507131152 18 159 1.6 4.8 0.00 0.00 0.00 33 1015.7
20260507130648 20 89 0.0 4.8 0.00 0.00 0.00 31 1015.6
20260507130146 18 71 3.2 8.0 0.00 0.00 0.00 33 1015.5
20260507125645 18 20 4.8 11.3 0.00 0.00 0.00 33 1015.6
20260507125142 18 51 3.2 8.0 0.00 0.00 0.00 34 1015.5
20260507124638 19 39 3.2 8.0 0.00 0.00 0.00 32 1015.3
20260507124136 18 4 4.8 8.0 0.00 0.00 0.00 34 1015.4
20260507123634 18 56 3.2 4.8 0.00 0.00 0.00 35 1015.5
20260507123131 18 69 1.6 4.8 0.00 0.00 0.00 34 1015.3
20260507122626 18 25 4.8 6.4 0.00 0.00 0.00 34 1015.5
20260507122122 18 45 0.0 3.2 0.00 0.00 0.00 35 1015.6
20260507121618 18 140 3.2 4.8 0.00 0.00 0.00 34 1015.6
20260507121114 18 143 1.6 4.8 0.00 0.00 0.00 32 1015.2
20260507120610 19 89 0.0 4.8 0.00 0.00 0.00 32 1015.3
20260507120107 19 80 1.6 9.7 0.00 0.00 0.00 33 1015.4
20260507115603 18 14 3.2 8.0 0.00 0.00 0.00 33 1015.4
20260507115059 18 38 3.2 8.0 0.00 0.00 0.00 34 1015.3
20260507114555 18 91 0.0 6.4 0.00 0.00 0.00 35 1015.7
20260507114053 18 64 3.2 8.0 0.00 0.00 0.00 33 1015.4
20260507113549 19 103 4.8 8.0 0.00 0.00 0.00 32 1015.4
20260507113047 18 112 4.8 6.4 0.00 0.00 0.00 34 1015.5
20260507112545 18 58 1.6 4.8 0.00 0.00 0.00 33 1015.4
20260507112041 18 332 4.8 11.3 0.00 0.00 0.00 34 1015.6
20260507111538 18 38 3.2 4.8 0.00 0.00 0.00 34 1015.6
20260507111035 18 82 1.6 1.6 0.00 0.00 0.00 35 1015.5
20260507110531 18 92 1.6 3.2 0.00 0.00 0.00 33 1015.3
20260507110028 18 48 3.2 4.8 0.00 0.00 0.00 33 1015.5
20260507105525 18 16 0.0 3.2 0.00 0.00 0.00 32 1015.4
20260507105021 19 96 0.0 3.2 0.00 0.00 0.00 32 1015.7
20260507104519 19 2 3.2 4.8 0.00 0.00 0.00 32 1015.6
20260507104015 19 80 0.0 6.4 0.00 0.00 0.00 32 1015.6
20260507103511 19 24 3.2 4.8 0.00 0.00 0.00 31 1015.8
20260507103007 20 28 3.2 6.4 0.00 0.00 0.00 31 1015.7
20260507102505 20 59 3.2 4.8 0.00 0.00 0.00 30 1015.7
20260507102000 20 62 3.2 4.8 0.00 0.00 0.00 30 1015.8
20260507101456 20 82 1.6 4.8 0.00 0.00 0.00 30 1016.0
20260507100953 20 43 4.8 4.8 0.00 0.00 0.00 30 1015.7
20260507100450 20 21 1.6 6.4 0.00 0.00 0.00 30 1015.8
20260507095948 20 75 3.2 8.0 0.00 0.00 0.00 30 1016.0
20260507095445 20 358 3.2 9.7 0.00 0.00 0.00 30 1016.1
20260507094942 20 59 1.6 6.4 0.00 0.00 0.00 30 1015.9
20260507094438 20 72 3.2 6.4 0.00 0.00 0.00 30 1016.1
20260507093935 20 89 1.6 6.4 0.00 0.00 0.00 30 1016.2
20260507093433 19 69 1.6 6.4 0.00 0.00 0.00 31 1016.2
20260507092931 19 81 0.0 6.4 0.00 0.00 0.00 31 1016.4
20260507092427 19 27 0.0 3.2 0.00 0.00 0.00 32 1016.2
20260507091924 19 49 3.2 4.8 0.00 0.00 0.00 32 1016.6
20260507091420 19 102 0.0 3.2 0.00 0.00 0.00 32 1016.2
20260507090916 19 64 0.0 4.8 0.00 0.00 0.00 32 1016.4
20260507090413 20 54 4.8 6.4 0.00 0.00 0.00 31 1016.1
20260507085909 20 80 0.0 4.8 0.00 0.00 0.00 31 1016.2
20260507085406 19 54 1.6 6.4 0.00 0.00 0.00 32 1016.5
20260507084904 19 24 1.6 4.8 0.00 0.00 0.00 32 1016.5
20260507084400 19 56 1.6 4.8 0.00 0.00 0.00 32 1016.5
20260507083857 19 79 0.0 3.2 0.00 0.00 0.00 32 1016.8
20260507083353 18 91 1.6 4.8 0.00 0.00 0.00 33 1016.5
20260507082850 19 27 0.0 3.2 0.00 0.00 0.00 33 1016.4
20260507082345 19 25 0.0 4.8 0.00 0.00 0.00 32 1016.6
20260507081843 20 49 0.0 3.2 0.00 0.00 0.00 31 1016.7
20260507081339 20 72 3.2 6.4 0.00 0.00 0.00 31 1016.8
20260507080836 20 87 1.6 4.8 0.00 0.00 0.00 31 1016.8
20260507080332 20 64 3.2 3.2 0.00 0.00 0.00 31 1016.7
20260507075827 20 73 3.2 6.4 0.00 0.00 0.00 31 1016.7
20260507075324 20 40 3.2 4.8 0.00 0.00 0.00 31 1016.9
20260507074820 19 89 1.6 6.4 0.00 0.00 0.00 33 1016.8
20260507074318 19 34 1.6 3.2 0.00 0.00 0.00 33 1016.8
20260507073815 20 73 1.6 3.2 0.00 0.00 0.00 31 1016.7
20260507073311 20 72 3.2 3.2 0.00 0.00 0.00 31 1016.7
20260507072809 20 84 3.2 3.2 0.00 0.00 0.00 30 1016.6
20260507072308 20 91 1.6 4.8 0.00 0.00 0.00 32 1016.7
20260507071803 20 70 3.2 4.8 0.00 0.00 0.00 30 1016.6
20260507071300 20 84 3.2 4.8 0.00 0.00 0.00 29 1016.5
20260507070756 20 73 3.2 3.2 0.00 0.00 0.00 29 1016.5
20260507070254 20 109 3.2 4.8 0.00 0.00 0.00 29 1016.7
20260507065750 20 87 3.2 4.8 0.00 0.00 0.00 29 1016.8
20260507065247 21 49 1.6 3.2 0.00 0.00 0.00 29 1016.6
20260507064744 21 100 0.0 3.2 0.00 0.00 0.00 29 1016.7
20260507064243 21 45 1.6 6.4 0.00 0.00 0.00 29 1016.6
20260507063740 21 68 1.6 6.4 0.00 0.00 0.00 30 1016.6
20260507063237 21 37 1.6 4.8 0.00 0.00 0.00 29 1016.5
20260507062734 21 21 3.2 4.8 0.00 0.00 0.00 30 1016.4
20260507062231 21 48 1.6 4.8 0.00 0.00 0.00 30 1016.7
20260507061730 21 47 1.6 4.8 0.00 0.00 0.00 30 1016.6
20260507061227 21 102 0.0 4.8 0.00 0.00 0.00 31 1016.7
20260507060725 21 4 1.6 3.2 0.00 0.00 0.00 30 1016.6
20260507060221 21 69 0.0 4.8 0.00 0.00 0.00 30 1016.7
20260507055718 21 44 0.0 3.2 0.00 0.00 0.00 29 1016.8
20260507055213 21 37 1.6 3.2 0.00 0.00 0.00 29 1016.8
20260507054709 21 77 0.0 4.8 0.00 0.00 0.00 29 1016.6
20260507054206 21 17 0.0 4.8 0.00 0.00 0.00 30 1016.6
20260507053704 21 19 3.2 4.8 0.00 0.00 0.00 29 1016.6
20260507053202 21 12 3.2 6.4 0.00 0.00 0.00 29 1016.8
20260507052701 21 34 3.2 4.8 0.00 0.00 0.00 29 1016.5
20260507052156 21 49 0.0 3.2 0.00 0.00 0.00 30 1016.8
20260507051654 21 0 0.0 3.2 0.00 0.00 0.00 30 1016.6
20260507051150 21 83 1.6 3.2 0.00 0.00 0.00 29 1016.6
20260507050647 21 89 0.0 3.2 0.00 0.00 0.00 29 1016.5
20260507050144 21 65 0.0 3.2 0.00 0.00 0.00 29 1016.7
20260507045641 21 60 1.6 3.2 0.00 0.00 0.00 29 1016.5
20260507045137 21 83 0.0 3.2 0.00 0.00 0.00 29 1016.7
20260507044634 21 62 0.0 3.2 0.00 0.00 0.00 29 1016.4
20260507044131 22 84 0.0 3.2 0.00 0.00 0.00 29 1016.2
20260507043627 22 64 1.6 4.8 0.00 0.00 0.00 29 1016.4
20260507043125 22 70 1.6 4.8 0.00 0.00 0.00 29 1016.5
20260507042621 22 72 0.0 1.6 0.00 0.00 0.00 29 1016.2
20260507042116 22 53 0.0 3.2 0.00 0.00 0.00 29 1016.2
20260507041613 22 38 0.0 3.2 0.00 0.00 0.00 29 1016.4
20260507041110 22 135 0.0 3.2 0.00 0.00 0.00 29 1016.1
20260507040607 22 66 0.0 3.2 0.00 0.00 0.00 29 1016.0
20260507035559 23 49 0.0 3.2 0.00 0.00 0.00 26 1015.8
20260507035055 23 294 0.0 3.2 0.00 0.00 0.00 25 1015.8
20260507034552 24 294 1.6 3.2 0.00 0.00 0.00 24 1015.7
20260507034050 23 333 0.0 1.6 0.00 0.00 0.00 25 1015.6
20260507033547 24 267 3.2 4.8 0.00 0.00 0.00 24 1015.7
20260507033039 24 235 0.0 3.2 0.00 0.00 0.00 24 1015.5
20260507032536 24 325 1.6 3.2 0.00 0.00 0.00 25 1015.5
20260507032032 24 269 0.0 3.2 0.00 0.00 0.00 24 1015.6
20260507031528 24 240 1.6 4.8 0.00 0.00 0.00 24 1015.4
20260507031026 24 242 1.6 3.2 0.00 0.00 0.00 23 1015.2
20260507030522 24 256 0.0 1.6 0.00 0.00 0.00 24 1015.2
20260507030021 25 239 3.2 3.2 0.00 0.00 0.00 23 1015.3
20260507025517 25 249 0.0 4.8 0.00 0.00 0.00 23 1015.5
20260507025015 25 249 0.0 4.8 0.00 0.00 0.00 23 1014.9
20260507024512 25 255 0.0 4.8 0.00 0.00 0.00 23 1015.2
20260507024009 25 250 1.6 4.8 0.00 0.00 0.00 22 1015.1
20260507023505 25 261 4.8 6.4 0.00 0.00 0.00 22 1014.9
20260507023002 25 237 4.8 9.7 0.00 0.00 0.00 22 1015.0
20260507022459 25 257 4.8 9.7 0.00 0.00 0.00 22 1014.9
20260507021954 25 286 3.2 6.4 0.00 0.00 0.00 22 1014.9
20260507021450 26 285 4.8 11.3 0.00 0.00 0.00 22 1014.7
20260507020947 26 320 4.8 6.4 0.00 0.00 0.00 22 1014.8
20260507020444 26 274 3.2 11.3 0.00 0.00 0.00 22 1014.8
20260507015941 26 241 3.2 11.3 0.00 0.00 0.00 22 1014.6
20260507015440 26 237 4.8 9.7 0.00 0.00 0.00 22 1014.6
20260507014936 26 251 3.2 11.3 0.00 0.00 0.00 21 1014.5
20260507014433 26 330 4.8 9.7 0.00 0.00 0.00 21 1014.7
20260507013929 27 246 1.6 6.4 0.00 0.00 0.00 21 1014.6
20260507013426 27 248 4.8 16.1 0.00 0.00 0.00 21 1014.6
20260507012924 27 293 1.6 8.0 0.00 0.00 0.00 21 1014.6
20260507012420 27 338 0.0 11.3 0.00 0.00 0.00 21 1014.6
20260507011916 27 258 3.2 12.9 0.00 0.00 0.00 21 1014.3
20260507011414 27 283 12.9 12.9 0.00 0.00 0.00 21 1014.5
20260507010908 27 261 11.3 14.5 0.00 0.00 0.00 20 1014.6
20260507010403 27 238 4.8 12.9 0.00 0.00 0.00 21 1014.5
20260507005901 27 257 8.0 16.1 0.00 0.00 0.00 20 1014.5
20260507005357 28 230 8.0 9.7 0.00 0.00 0.00 20 1014.6
20260507004854 28 243 6.4 9.7 0.00 0.00 0.00 21 1014.5
20260507004351 27 231 4.8 12.9 0.00 0.00 0.00 21 1014.8
20260507003848 28 296 6.4 11.3 0.00 0.00 0.00 21 1014.7
20260507003338 28 234 6.4 11.3 0.00 0.00 0.00 21 1014.3
20260507002833 27 244 11.3 20.9 0.00 0.00 0.00 21 1014.4
20260507002329 28 236 9.7 9.7 0.00 0.00 0.00 21 1014.4
20260507001827 28 278 3.2 16.1 0.00 0.00 0.00 20 1014.3
20260507001324 28 226 8.0 14.5 0.00 0.00 0.00 20 1014.5
20260507000820 28 165 0.0 11.3 0.00 0.00 0.00 21 1014.5
20260507000316 28 192 1.6 9.7 0.00 0.00 0.00 22 1014.7
20260506235812 28 186 1.6 6.4 0.00 0.00 0.00 20 1014.5
20260506235309 27 243 6.4 16.1 0.00 0.00 0.00 20 1014.6
20260506234805 27 344 4.8 12.9 0.00 0.00 0.00 21 1014.6
20260506234303 28 300 8.0 12.9 0.00 0.00 0.00 20 1014.6
20260506233800 27 176 1.6 9.7 0.00 0.00 0.00 21 1014.5
20260506233256 27 251 4.8 9.7 0.00 0.00 0.00 22 1014.5
20260506232753 27 268 4.8 16.1 0.00 0.00 0.00 21 1014.6
20260506232248 28 293 6.4 9.7 0.00 0.00 0.00 21 1014.7
20260506231745 28 335 3.2 9.7 0.00 0.00 0.00 20 1014.4
20260506231243 28 249 8.0 12.9 0.00 0.00 0.00 21 1014.7
20260506230734 27 245 8.0 20.9 0.00 0.00 0.00 21 1014.9
20260506230231 27 245 6.4 14.5 0.00 0.00 0.00 21 1014.7
20260506225728 27 281 8.0 11.3 0.00 0.00 0.00 21 1014.7
20260506225225 27 312 17.7 20.9 0.00 0.00 0.00 21 1014.9
20260506224721 28 206 4.8 11.3 0.00 0.00 0.00 21 1015.1
20260506224218 28 248 12.9 16.1 0.00 0.00 0.00 20 1015.1
20260506223715 27 256 3.2 19.3 0.00 0.00 0.00 22 1015.0
20260506223210 27 222 3.2 9.7 0.00 0.00 0.00 22 1015.1
20260506222707 27 288 3.2 16.1 0.00 0.00 0.00 22 1015.3
20260506222203 27 327 11.3 19.3 0.00 0.00 0.00 22 1015.3
20260506221701 26 351 9.7 14.5 0.00 0.00 0.00 22 1015.5
20260506221159 28 281 9.7 16.1 0.00 0.00 0.00 21 1015.4
20260506220656 28 343 6.4 9.7 0.00 0.00 0.00 21 1015.4
20260506220151 27 294 6.4 12.9 0.00 0.00 0.00 22 1015.7
20260506215648 26 265 3.2 11.3 0.00 0.00 0.00 23 1015.6
20260506215143 26 320 6.4 20.9 0.00 0.00 0.00 22 1015.6
20260506214640 26 118 4.8 11.3 0.00 0.00 0.00 22 1015.7
20260506214137 27 264 4.8 11.3 0.00 0.00 0.00 22 1015.9
20260506213636 27 255 6.4 14.5 0.00 0.00 0.00 22 1015.8
20260506213133 27 258 6.4 14.5 0.00 0.00 0.00 21 1015.6
20260506212630 26 302 8.0 16.1 0.00 0.00 0.00 22 1016.1
20260506212124 26 324 16.1 24.1 0.00 0.00 0.00 22 1016.1
20260506211620 27 190 0.0 9.7 0.00 0.00 0.00 23 1016.0
20260506211117 26 214 1.6 11.3 0.00 0.00 0.00 23 1016.1
20260506210614 26 243 3.2 12.9 0.00 0.00 0.00 23 1016.1
20260506210110 26 264 4.8 20.9 0.00 0.00 0.00 23 1016.2
20260506205608 26 323 6.4 16.1 0.00 0.00 0.00 22 1016.5
20260506205102 25 207 1.6 17.7 0.00 0.00 0.00 24 1016.2
20260506204601 26 265 14.5 17.7 0.00 0.00 0.00 22 1016.7
20260506204058 26 236 9.7 16.1 0.00 0.00 0.00 22 1016.5
20260506203556 26 221 6.4 19.3 0.00 0.00 0.00 23 1017.0
20260506203052 25 298 8.0 19.3 0.00 0.00 0.00 23 1016.9
20260506202549 25 312 12.9 16.1 0.00 0.00 0.00 23 1016.8
20260506202046 26 289 4.8 11.3 0.00 0.00 0.00 23 1016.8
20260506201543 25 253 4.8 12.9 0.00 0.00 0.00 23 1016.8
20260506201040 25 309 4.8 17.7 0.00 0.00 0.00 23 1017.0
20260506200536 25 43 3.2 12.9 0.00 0.00 0.00 24 1017.1
20260506200033 25 320 9.7 17.7 0.00 0.00 0.00 24 1017.3
20260506195530 26 290 4.8 16.1 0.00 0.00 0.00 22 1017.3
20260506195026 25 305 6.4 14.5 0.00 0.00 0.00 24 1017.1
20260506194524 25 243 3.2 17.7 0.00 0.00 0.00 24 1017.3
20260506194020 25 271 11.3 17.7 0.00 0.00 0.00 24 1017.3
20260506193518 25 62 1.6 14.5 0.00 0.00 0.00 25 1017.4
20260506193015 25 235 14.5 17.7 0.00 0.00 0.00 23 1017.3
20260506192511 25 334 6.4 14.5 0.00 0.00 0.00 24 1017.4
20260506192007 24 287 6.4 16.1 0.00 0.00 0.00 24 1017.6
20260506191504 25 240 6.4 11.3 0.00 0.00 0.00 24 1017.5
20260506191001 25 339 8.0 14.5 0.00 0.00 0.00 23 1017.6
20260506190458 24 319 8.0 14.5 0.00 0.00 0.00 24 1017.6
20260506185954 24 262 16.1 17.7 0.00 0.00 0.00 25 1017.6
20260506185451 24 318 11.3 22.5 0.00 0.00 0.00 26 1017.8
20260506184943 23 10 3.2 20.9 0.00 0.00 0.00 29 1017.9
20260506184439 23 285 3.2 14.5 0.00 0.00 0.00 27 1017.8
20260506183937 24 296 8.0 12.9 0.00 0.00 0.00 26 1017.8
20260506183432 23 233 4.8 17.7 0.00 0.00 0.00 28 1018.0
20260506182929 23 341 4.8 14.5 0.00 0.00 0.00 28 1018.3
20260506182427 24 261 3.2 9.7 0.00 0.00 0.00 27 1018.2
20260506181924 23 233 4.8 12.9 0.00 0.00 0.00 28 1018.1
20260506181422 23 243 9.7 17.7 0.00 0.00 0.00 29 1018.2
20260506180918 23 249 6.4 16.1 0.00 0.00 0.00 29 1018.3
20260506180414 23 188 1.6 6.4 0.00 0.00 0.00 29 1018.2
20260506175912 22 272 11.3 12.9 0.00 0.00 0.00 29 1018.3
20260506175408 23 299 4.8 14.5 0.00 0.00 0.00 29 1018.7
20260506174905 22 175 1.6 14.5 0.00 0.00 0.00 31 1018.5
20260506174403 22 219 0.0 14.5 0.00 0.00 0.00 31 1018.5
20260506173900 22 194 3.2 12.9 0.00 0.00 0.00 31 1018.7
20260506173356 22 276 17.7 17.7 0.00 0.00 0.00 30 1018.5
20260506172854 22 339 6.4 14.5 0.00 0.00 0.00 30 1018.6
20260506172350 22 264 6.4 12.9 0.00 0.00 0.00 31 1018.3
20260506171848 22 292 4.8 11.3 0.00 0.00 0.00 31 1018.7
20260506171344 22 244 1.6 8.0 0.00 0.00 0.00 30 1018.3
20260506170842 22 98 3.2 8.0 0.00 0.00 0.00 31 1018.2
20260506170337 21 188 3.2 8.0 0.00 0.00 0.00 32 1018.3
20260506165831 22 326 3.2 9.7 0.00 0.00 0.00 31 1018.2
20260506165328 21 293 3.2 14.5 0.00 0.00 0.00 32 1018.2
20260506164819 22 339 4.8 6.4 0.00 0.00 0.00 31 1018.5
20260506164316 21 236 3.2 11.3 0.00 0.00 0.00 33 1018.5
20260506163814 21 280 4.8 11.3 0.00 0.00 0.00 32 1018.2
20260506163308 21 206 1.6 12.9 0.00 0.00 0.00 34 1018.1
20260506162803 21 254 6.4 12.9 0.00 0.00 0.00 32 1018.3
20260506162301 22 222 1.6 6.4 0.00 0.00 0.00 31 1018.1
20260506161753 21 211 1.6 8.0 0.00 0.00 0.00 32 1018.1